Regional Weather Roundup
Issued by NWS Charleston, SC

Current Version | Previous Version | Text Only | Print | Product List | Glossary Off
Versions: 1 2 3 4 5 6 7 8 9 10 11 12 13 14 15 16 17 18 19 20 21 22 23 24 25 26 27 28 29 30 31 32 33 34 35 36 37 38 39 40 41 42 43 44 45 46 47 48 49 50

000
ASUS42 KCHS 291812
RWRCHS

REGIONAL WEATHER ROUNDUP
NATIONAL WEATHER SERVICE CHARLESTON SC
200 PM EDT SAT APR 29 2017

NOTE: "FAIR" INDICATES FEW OR NO CLOUDS BELOW 12,000 FEET WITH NO
SIGNIFICANT WEATHER AND/OR OBSTRUCTIONS TO VISIBILITY.

NOT ALL STATIONS ARE QUALITY CONTROLLED. USE DATA WITH CAUTION...
ESPECIALLY DEWPOINT OBSERVATIONS.

SCZ027-030-031-034>040-042>050-291900-
...SOUTHEAST SOUTH CAROLINA...

CITY           SKY/WX    TMP DP  RH WIND       PRES   REMARKS
N CHARLESTON   PTSUNNY   85  69  58 S13       30.20S
6HR MIN TEMP:  75; 6HR MAX TEMP:  86;

WATERFRONT PRK   N/A     79  73  82 S9        30.19F
JOHNS ISLAND   CLOUDY    81  73  78 S14       30.21S
PINOPOLIS        N/A     84  70  61 S6        30.12F
MONCKS CORNER  FAIR      84  64  51 S8G18     30.19S
SUMMERVILLE    FAIR      84  68  58 SW8       30.20S
BEAUFORT MCAS  PTSUNNY   84  73  69 S10G17    30.20S HX  90
6HR MIN TEMP:  75; 6HR MAX TEMP:  85;

BEAUFORT ARPT  FAIR      81  72  74 S16G22    30.20F
HILTON HEAD IS MOSUNNY   82  73  74 S12G17    30.22S
WALTERBORO     CLOUDY    86  68  54 S10       30.19F
ALLENDALE      FAIR      88  68  51 SE10      30.16F HX  91

...SOUTHERN MIDLANDS AND PEE DEE...

CITY           SKY/WX    TMP DP  RH WIND       PRES   REMARKS
GEORGETOWN     FAIR      82  70  65 S9G18     30.21F
KINGSTREE      FAIR      88  64  45 SE8       30.18S
ORANGEBURG     MOSUNNY   85  68  56 SW7       30.18F
6HR MIN TEMP:  72; 6HR MAX TEMP:  87;

BARNWELL       FAIR      88  68  51 VRB7G14   30.17F HX  91
AIKEN          MOCLDY    81  70  69 S8        30.22F
MANNING        FAIR      84  68  58 S17G25    30.18F
COLUMBIA       MOSUNNY   86  68  54 S9        30.17F
6HR MIN TEMP:  73; 6HR MAX TEMP:  87;

SUMTER         MOSUNNY   86  67  51 SW10      30.16F
6HR MIN TEMP:  73; 6HR MAX TEMP:  87;

FLORENCE       MOSUNNY   87  69  54 VRB6      30.17F HX  91
6HR MIN TEMP:  74; 6HR MAX TEMP:  87;

MYRTLE BEACH   MOSUNNY   82  73  74 S15       30.21F
N MYRTLE BEACH SUNNY     79  73  82 S13       30.21S
6HR MIN TEMP:  75; 6HR MAX TEMP:  81;


$$

GAZ063-065-086>088-099>101-113>116-118-119-134>141-150-291900-
...SOUTHEAST GEORGIA...

CITY           SKY/WX    TMP DP  RH WIND       PRES   REMARKS
SAVANNAH ARPT  CLOUDY    87  67  51 S17       30.19S HX  90
6HR MIN TEMP:  76; 6HR MAX TEMP:  88;

HUNTER AAF     PTSUNNY   82  75  78 S9        30.17S
FORT STEWART   CLOUDY    86  68  54 SE13      30.15F HX  90
6HR MIN TEMP:  74; 6HR MAX TEMP:  87;

STATESBORO     MOSUNNY   89  65  44 S9G16     30.17S HX  90
SYLVANIA       PTCLDY   N/A N/A N/A S6        30.18F
CLAXTON        FAIR      86  71  60 SE3       30.16F HX  92

...CSRA...CENTRAL AND FAR SOUTHEAST GEORGIA...

CITY           SKY/WX    TMP DP  RH WIND       PRES   REMARKS
THOMSON        CLOUDY    80  72  75 SW6       30.22F
AUGUSTA-BUSH   CLOUDY    85  73  67 SE3       30.15F HX  91
6HR MIN TEMP:  73; 6HR MAX TEMP:  86;

AUGUSTA-DANIEL PTSUNNY   84  70  62 SE7       30.18F
SWAINSBORO     FAIR      88  64  45 S9        30.17S
VIDALIA        MOSUNNY   90  66  45 S8        30.16F HX  92
EASTMAN        MOCLDY    88  53  29 S7        30.17F
HAZLEHURST     FAIR      89  69  51 SE5       30.14F HX  93
ALMA           CLOUDY    89  68  49 SE8       30.15F HX  93
6HR MIN TEMP:  74; 6HR MAX TEMP:  89;

WAYCROSS       PTSUNNY   91  72  52 SE6       30.14F HX  98
JESUP          FAIR      90  64  43 S7        30.15F HX  91
BAXLEY         FAIR      90  72  55 SE8       30.15F HX  96
BRUNSWICK      MOSUNNY   82  72  69 SE15G22   30.19F
SAINT SIMONS   CLOUDY    82  72  71 SE12      30.18F
6HR MIN TEMP:  76; 6HR MAX TEMP:  83;


$$

SCZ027-028-034-036>038-045-046-048>050-GAZ119-141-291900-
...LAKE AND SUPPLEMENTAL COASTAL OBSERVATIONS...

STATION/POSITION TIME  TEMP    WIND        PRES    WAVE   SWELL
                       AIR SEA DIR/SP/G            HT/PER HT/PER/DIR
                 (UTC) (F)     (DEG/KT/KT) (MB)    (FT/S) (FT/S/D)
WINYAH BAY       NOT AVBL
LAKE MURRAY      1720   78     190/  6/  6 1021.7S
ACE BASIN NERRS  1645   81     170/  2     1023.0
FORT PULASKI     1736   80 76  180/  7/ 11 1023.2F
SAPELO ISLAND    1700   82     160/ 12     1023.0

$$

ANZ835-935-AMZ111-154-330-350-352-354-370-450-454-472-291900-
...C-MAN AND BUOY OBSERVATIONS...

STATION/POSITION TIME  TEMP    WIND        PRES    WAVE   SWELL
                       AIR SEA DIR/SP/G            HT/PER HT/PER/DIR
                 (UTC) (F)     (DEG/KT/KT) (MB)    (FT/S) (FT/S/D)
BUOY 41004       1750   76 75  170/  8/ 10 1023.4F   4/ 7   3/120/ 7
BUOY 41008       1650   75 74  150/  6/  8 1022.5    3/ 6   3/110/ 6
FOLLY BEACH CMAN 1700   77     170/  7/  7 1023.9F
CAPERS NEARSHORE 1708   77 76  200/  6/ 10 1023.3F
FRIPP NEARSHORE  1708   76 74  180/  6/  8 1022.9F


STATION/POSITION TIME  TEMP    WIND        PRES    WAVE   SWELL
                       AIR SEA DIR/SP/G            HT/PER HT/PER/DIR
                 (UTC) (F)     (DEG/KT/KT) (MB)    (FT/S) (FT/S/D)
5E ST. MARYS GA  1730      75                N/A     3/ 6
FRYING PAN BUOY  1750   76 74  190/ 10/ 10 1023.8F   3/ 6   3/140/ 6
BUOY 41025       1750   77 76  220/ 16/ 19 1023.0F   3/ 8   2/120/ 8
CAPE LOOKOUT NC  1700   77     210/ 14/ 17 1023.1F
BUOY 41002       1750   75 76  150/ 10/ 12 1025.6F   3/ 8   3/ 60/ 8
BUOY 41010       1750   78 79  130/ 14/ 17 1022.6F   5/ 7   3/100/ 7
ST AUGUSTINE FL  1800   76 78  140/ 17/ 20 1022.6F


$$



USA.gov is the U.S. government's official web portal to all federal, state and local government web resources and services.